Location: Palomar Mountain Lodge
(33.3110°N, 116.8495°W)
Time: 17:18:50
(UTC-08:00)

Cosmos 1151 Rocket - Pass Details

Date: 12 July 2018
Orbit: 593 x 615 km, 82.5° (Epoch: 15 December)

Event Time Altitude Azimuth Distance (km) Brightness Sun altitude
Rises 21:44:10 0° 351° (N) 2,834 7.3 -18.8°
Reaches altitude 10° 21:46:22 10° 350° (N) 1,930 6.4 -19.1°
Maximum altitude 21:50:37 76° 266° (W) 617 3.0 -19.8°
Enters shadow 21:52:15 37° 187° (S) 933 3.6 -20.0°
